User: anonymous   Login
Location: Campillo
(40.8621°N, 4.2488°W)
Time: 03:44:40
(UTC+00:00)
Language:

Cosmos 1503 Rocket - Orbit

View from above orbital plane
View from above orbital plane
View from above satellite
View from above satellite

Ground track
Ground track

The orbit data is extracted from the following two-line orbital elements,

1 14402U 83103B   21207.58430953  .00000084  00000-0  37699-4 0  9995
2 14402  74.0461  20.8882 0027385 214.5112 145.4264 14.36021267977409
Epoch (UTC): 26 July 2021 14:01:24
Eccentricity: 0.0027385
inclination: 74.0461°
perigee height: 752 km
apogee height: 791 km
right ascension of ascending node: 20.8882°
argument of perigee: 214.5112°
revolutions per day: 14.36021267
mean anomaly at epoch: 145.4264°
orbit number at epoch: 97740

The dashed part of the orbit path shows where the satellite is in the earth's shadow,  

DLR